Regional Weather Roundup
Issued by NWS

Home | Current Version | Previous Version | Text Only | Print | Product List | Glossary On
Versions: 1 2 3 4 5 6 7 8 9 10 11 12 13 14 15 16 17 18 19 20 21 22 23 24 25 26 27 28 29 30 31 32 33 34 35 36 37 38 39 40 41 42 43 44 45 46 47 48 49 50
000
ASUS43 KLMK 222302
RWRKY
KENTUCKY REGIONAL WEATHER ROUNDUP
NATIONAL WEATHER SERVICE LOUISVILLE KY
700 PM EDT MON SEP 22 2014

NOTE "FAIR" INDICATES FEW OR NO CLOUDS BELOW 12,000 FEET
WITH NO SIGNIFICANT WEATHER AND/OR OBSTRUCTIONS TO VISIBILITY.

KYZ001>023-026-027-061>063-070>075-230000-
WESTERN AND SOUTH CENTRAL KENTUCKY

CITY           SKY/WX    TMP DP  RH WIND       PRES   REMARKS
PADUCAH        CLEAR     73  47  39 N7        30.19F
HENDERSON      CLEAR     70  43  37 N7        30.21S
OWENSBORO      CLEAR     70  45  40 N7        30.21S
HOPKINSVILLE   CLEAR     69  43  38 N8        30.19R
BOWLING GREEN  CLEAR    N/A N/A N/A N7        30.19R
GLASGOW        CLEAR     68  43  39 CALM      30.19S
$$

KYZ024-025-028>034-038-045-046-053-230000-
NORTH CENTRAL KENTUCKY

CITY           SKY/WX    TMP DP  RH WIND       PRES   REMARKS
LOUISVILLE/SDF CLEAR     67  43  41 N13       30.22R
LOUISVILLE/LOU CLEAR     66  44  45 N5        30.22S
FORT KNOX      CLEAR     65  47  52 N5        30.21R
$$

KYZ035>037-039>044-047>052-055>060-089>105-230000-
NORTHEAST KENTUCKY

CITY           SKY/WX    TMP DP  RH WIND       PRES   REMARKS
LEXINGTON      CLEAR     65  44  46 NW6       30.21R
COVINGTON      CLEAR     64  42  44 NW8       30.22S
FRANKFORT      CLEAR     65  43  44 N6        30.21R
$$

KYZ054-064>069-076>088-106>120-230000-
SOUTHEAST KENTUCKY

CITY           SKY/WX    TMP DP  RH WIND       PRES   REMARKS
JACKSON        CLEAR     62  48  60 CALM      30.20R
LONDON         CLEAR     66  46  48 N7        30.20R
SOMERSET       CLEAR     63  43  48 NE6       30.20S
MIDDLESBORO    CLEAR     65  50  60 N5        30.18R
MONTICELLO     CLEAR     67  45  45 NE5       30.20S
$$



USA.gov is the U.S. government's official web portal to all federal, state and local government web resources and services.